Flag for Canada Weather past 2 weeks in Stephenville, Newfoundland and Labrador, Canada

Now
61 °F

Partly sunny.


Feels Like: 61 °F
Forecast: 55 / 64 °F
Wind: 17 mph from Northeast

Location: Stephenville

Current Time: Sep 1, 2015 at 4:28:18 PM

Latest Report: Sep 1, 2015 at 3:30 PM


Visibility: 15 mi

Pressure: 29.72 "Hg

Humidity: 72%

Dew point: 52 °F

Location of StephenvilleLocation

Historic Weather in Stephenville — Graph

°F

Stephenville temperature yesterday

Maximum temperature yesterday: 72 °F (at 3:23 PM)
Minimum temperature yesterday: 64 °F (at 3:30 AM)
Average temperature yesterday: 68 °F

Past Weeks' High & Low Weather Summary

 TemperatureHumidityPressure
High81 °F (Aug 24, 4:30 PM)100% (Aug 19, 12:30 AM)30.28 "Hg (Aug 19, 12:30 AM)
Low55 °F (Aug 29, 3:30 AM)45% (Aug 19, 3:30 PM)29.45 "Hg (Sep 1, 4:30 AM)
Average68 °F83%30.00 "Hg
* Reported Aug 17 2:30 PM — Sep 1 2:30 PM, Stephenville, Weather by CustomWeather, © 2015

Note: Actual official high and low records may vary slightly from our data, if they occured in-between our weather recording intervals... More about our weather records

Advertising

Stephenville weather history for previous 24 hours

 ConditionsComfort  
Time TempWeatherWind HumidityBarometerVisibility
2:30 PM
Tue, Sep 1
61 °FPartly sunny.10 mph72%29.70 "Hg15 mi
1:30 PM61 °FPartly sunny.21 mph77%29.65 "Hg15 mi
12:30 PM59 °FPartly sunny.16 mph88%29.62 "Hg15 mi
11:30 AM59 °FPartly sunny.8 mph88%29.59 "Hg10 mi
10:30 AM63 °FSprinkles. Fog.12 mph88%29.55 "Hg6 mi
9:30 AM64 °FSprinkles. Partly sunny.3 mph94%29.52 "Hg15 mi
8:30 AM63 °FSprinkles. Partly sunny.5 mph100%29.49 "Hg15 mi
7:30 AM63 °FPartly sunny.2 mph94%29.48 "Hg15 mi
6:30 AM63 °FRain showers. Fog.5 mph94%29.46 "Hg6 mi
5:30 AM64 °FPartly cloudy.10 mph88%29.45 "Hg15 mi
4:30 AM64 °FPartly cloudy.12 mph88%29.45 "Hg15 mi
3:30 AM64 °FPartly cloudy.9 mph94%29.45 "Hg15 mi
2:30 AM64 °FSprinkles. Fog.6 mph94%29.46 "Hg6 mi
1:30 AM64 °FThunderstorms. Mostly cloudy.15 mph94%29.49 "Hg8 mi
12:30 AM68 °FThunderstorms. Partly cloudy.15 mph83%29.49 "Hg12 mi
11:30 PM
Mon, Aug 31
68 °FPassing clouds.14 mph83%29.50 "Hg15 mi
10:30 PM68 °FPassing clouds.15 mph88%29.54 "Hg15 mi
9:30 PM68 °FPassing clouds.10 mph88%29.58 "Hg15 mi
8:30 PM68 °FPartly sunny.9 mph88%29.59 "Hg15 mi
7:30 PM68 °FPartly sunny.6 mph88%29.61 "Hg15 mi
6:30 PM70 °FPartly sunny.12 mph83%29.63 "Hg15 mi
5:30 PM72 °FBroken clouds.20 mph78%29.64 "Hg15 mi
4:30 PM72 °FBroken clouds.14 mph78%29.66 "Hg15 mi
Weather by CustomWeather, © 2015

See weather overviewHow to use our weather pages